This demonstration page uses our WeatherBlox Daily Observations layout. Learn more.

Left ArrowRight Arrow

Hourly Observations for April 12, 2022

Temp ( °F °C ) Dew Point ( °F °C ) Humidity (%) Winds ( mph kmh ) Pressure ( in mb ) Visibility ( mi km ) Precip ( " mm )
12:15 am 00:15 Clear 51 10.5 26 -3.2 38 38 SE 24 39 29.57 1001 10 16 0.00 0.00
12:35 am 00:35 Clear 52 11 28 -2.1 40 40 SE 23 37 29.55 1001 10 16 0.00 0.00
12:55 am 00:55 Clear 51 10.8 30 -1 44 44 SE 23 37 29.55 1001 10 16 0.00 0.00
1:15 am 01:15 Clear 53 11.4 32 0.2 46 46 SE 24 39 29.53 1000 10 16 0.00 0.00
1:35 am 01:35 Clear 53 11.6 34 1.3 50 50 SE 28 44 29.52 1000 10 16 0.00 0.00
1:55 am 01:55 Clear 53 11.6 36 2.1 52 52 SE 28 44 29.52 1000 10 16 0.00 0.00
2:15 am 02:15 Clear 52 11.2 37 2.5 55 55 SSE 29 46 29.51 999 10 16 0.00 0.00
2:35 am 02:35 Clear 52 10.9 36 2.3 56 56 SE 24 39 29.48 998 10 16 0.00 0.00
2:55 am 02:55 Clear 51 10.5 37 2.5 58 58 SE 22 35 29.49 999 10 16 0.00 0.00
3:15 am 03:15 Clear 51 10.5 37 3 60 60 SE 22 35 29.47 998 10 16 0.00 0.00
3:35 am 03:35 Clear 51 10.4 39 3.9 64 64 SE 29 46 29.44 997 10 16 0.00 0.00
3:55 am 03:55 Clear 50 10.2 40 4.7 69 69 SE 31 50 29.43 997 10 16 0.00 0.00
4:15 am 04:15 Clear 50 10.1 42 5.6 74 74 SE 29 46 29.41 996 10 16 0.00 0.00
4:35 am 04:35 Clear 50 10 44 6.4 79 79 SE 29 46 29.40 996 10 16 0.00 0.00
4:55 am 04:55 Mostly Cloudy 50 10.2 45 7.2 82 82 SE 30 48 29.39 995 10 16 0.00 0.00
5:15 am 05:15 Cloudy 51 10.6 46 8 84 84 SSE 29 46 29.39 995 10 16 0.00 0.00
5:35 am 05:35 Cloudy 51 10.5 46 8 85 85 SSE 29 46 29.39 995 10 16 0.00 0.00
5:55 am 05:55 Cloudy 51 10.6 47 8.3 86 86 SSE 28 44 29.38 995 10 16 0.00 0.00
6:15 am 06:15 Cloudy 51 10.7 48 8.7 88 88 SSE 32 52 29.36 994 10 16 0.00 0.00
6:35 am 06:35 Cloudy 51 10.6 48 9.1 91 91 SSE 26 43 29.34 993 10 16 0.00 0.00
6:55 am 06:55 Cloudy 52 11.1 49 9.4 89 89 SSE 20 31 29.33 993 10 16 0.00 0.00
7:15 am 07:15 Cloudy 53 11.6 50 9.8 89 89 SSE 20 31 29.32 993 10 16 0.00 0.00
7:35 am 07:35 Cloudy 54 12 50 10.1 88 88 SSE 25 41 29.31 992 10 16 0.00 0.00
7:55 am 07:55 Cloudy 55 12.5 51 10.5 88 88 SSE 26 43 29.29 992 10 16 0.00 0.00
8:15 am 08:15 Cloudy 55 13 51 10.7 86 86 SSE 23 37 29.28 991 10 16 0.00 0.00
8:35 am 08:35 Partly Cloudy 56 13.6 52 11 84 84 S 20 31 29.26 991 10 16 0.00 0.00
8:55 am 08:55 Sunny 59 15 51 10.8 76 76 S 21 33 29.25 991 10 16 0.00 0.00
9:15 am 09:15 Sunny 61 15.9 51 10.6 71 71 S 28 44 29.23 990 10 16 0.00 0.00
9:35 am 09:35 Sunny 63 17 50 10.2 64 64 S 24 39 29.21 989 10 16 0.00 0.00
9:55 am 09:55 Sunny 64 17.9 48 9 56 56 S 30 48 29.19 988 10 16 0.00 0.00
10:15 am 10:15 Sunny 65 18.5 48 9.1 54 54 S 28 44 29.18 988 10 16 0.00 0.00
10:35 am 10:35 Sunny 67 19.5 47 8.1 48 48 S 29 46 29.16 988 10 16 0.00 0.00
10:55 am 10:55 Sunny 70 20.9 46 7.6 42 42 S 26 43 29.16 988 10 16 0.00 0.00
11:15 am 11:15 Sunny 72 22.4 43 6.2 35 35 S 30 48 29.14 987 10 16 0.00 0.00
11:35 am 11:35 Sunny 74 23.5 39 3.8 28 28 S 29 46 29.12 986 10 16 0.00 0.00
11:55 am 11:55 Sunny 77 24.9 35 1.7 22 22 SSW 32 52 29.10 985 10 16 0.00 0.00
12:15 pm 12:15 Sunny 79 26 32 0.1 18 18 SSW 30 48 29.09 985 10 16 0.00 0.00
12:35 pm 12:35 Sunny 81 27.1 30 -1.1 16 16 SSW 28 44 29.08 985 10 16 0.00 0.00
12:55 pm 12:55 Sunny 82 27.8 27 -2.8 13 13 SSW 25 41 29.06 984 10 16 0.00 0.00
1:15 pm 13:15 Sunny 84 28.7 27 -2.9 12 12 SSW 26 43 29.04 983 10 16 0.00 0.00
1:35 pm 13:35 Sunny 85 29.6 25 -3.9 11 11 SSW 28 44 29.02 983 10 16 0.00 0.00
1:55 pm 13:55 Sunny 87 30.3 24 -4.4 10 10 SSW 30 48 29.02 983 10 16 0.00 0.00
2:15 pm 14:15 Sunny 87 30.3 24 -4.6 10 10 SSW 31 50 29.02 983 10 16 0.00 0.00
2:35 pm 14:35 Sunny 87 30.3 24 -4.6 10 10 SW 30 48 29.02 983 10 16 0.00 0.00
2:55 pm 14:55 Sunny 84 29.1 27 -2.7 12 12 W 22 35 29.04 983 10 16 0.00 0.00
3:15 pm 15:15 Partly Cloudy 83 28.6 28 -2.5 13 13 W 21 33 29.05 984 10 16 0.00 0.00
3:35 pm 15:35 Sunny 83 28.2 29 -1.6 14 14 W 23 37 29.07 984 10 16 0.00 0.00
3:55 pm 15:55 Sunny 82 27.6 30 -1.2 15 15 WNW 23 37 29.07 984 10 16 0.00 0.00
4:15 pm 16:15 Sunny 80 26.8 30 -1.2 16 16 WNW 25 41 29.10 985 10 16 0.00 0.00
4:35 pm 16:35 Sunny 78 25.4 32 -0.2 19 19 WNW 29 46 29.12 986 10 16 0.00 0.00
4:55 pm 16:55 Sunny 76 24.3 30 -1.2 18 18 WNW 26 43 29.14 987 10 16 0.00 0.00
5:15 pm 17:15 Partly Cloudy 74 23.2 30 -1 20 20 NW 38 61 29.16 988 10 16 0.00 0.00
5:35 pm 17:35 Partly Cloudy 70 20.9 31 -0.3 24 24 NW 39 63 29.20 989 7 11 0.00 0.00
5:55 pm 17:55 Mostly Cloudy 65 18.4 30 -1 27 27 NW 40 65 29.25 991 7 11 0.00 0.00
6:15 pm 18:15 Partly Cloudy 63 17 29 -1.5 28 28 NNW 36 57 29.29 992 7 11 0.00 0.00
6:35 pm 18:35 Sunny 61 16.2 28 -2.5 28 28 NNW 33 54 29.31 993 10 16 0.00 0.00
6:55 pm 18:55 Sunny 60 15.7 26 -3.1 27 27 NNW 37 59 29.32 993 10 16 0.00 0.00
7:15 pm 19:15 Sunny 59 15.1 24 -4.4 26 26 NNW 36 57 29.35 994 10 16 0.00 0.00
7:35 pm 19:35 Sunny 58 14.3 21 -6.1 24 24 NNW 35 56 29.38 995 10 16 0.00 0.00
7:55 pm 19:55 Partly Cloudy 56 13.2 21 -6 26 26 NW 29 46 29.41 996 10 16 0.00 0.00
8:15 pm 20:15 Clear 54 12.1 20 -6.5 27 27 NW 31 50 29.44 997 10 16 0.00 0.00
8:35 pm 20:35 Partly Cloudy 53 11.4 20 -6.5 28 28 NW 29 46 29.49 999 10 16 0.00 0.00
8:55 pm 20:55 Partly Cloudy 51 10.5 16 -9 25 25 NW 33 54 29.49 999 10 16 0.00 0.00
9:15 pm 21:15 Partly Cloudy 50 10 11 -11.7 21 21 NW 36 57 29.53 1000 10 16 0.00 0.00
9:35 pm 21:35 Partly Cloudy 49 9.5 7 -13.7 18 18 NNW 31 50 29.55 1001 10 16 0.00 0.00
9:55 pm 21:55 Clear 48 9 8 -13.6 19 19 NW 32 52 29.56 1001 10 16 0.00 0.00
10:15 pm 22:15 Clear 47 8.5 8 -13.5 20 20 NW 32 52 29.56 1001 10 16 0.00 0.00
10:35 pm 22:35 Clear 46 8 6 -14.7 18 18 NW 39 63 29.54 1000 10 16 0.00 0.00
10:55 pm 22:55 Partly Cloudy 46 7.6 6 -14.7 19 19 NW 40 65 29.55 1001 10 16 0.00 0.00
11:15 pm 23:15 Mostly Cloudy 45 7.3 6 -14.6 20 20 NW 39 63 29.62 1003 10 16 0.00 0.00
11:35 pm 23:35 Mostly Cloudy 45 7.1 6 -14.6 20 20 NNW 23 37 29.66 1004 10 16 0.00 0.00
11:55 pm 23:55 Mostly Cloudy 44 6.5 10 -12 26 26 NNW 25 41 29.70 1006 10 16 0.00 0.00

Powered by AerisWeather